This is the latest recevied weather packets stored in our database for station/object SR5NLK-1. If no packets are shown the sender has not sent any weather packets the latest 10 day(s).
| Time | Temp. | Humidity | Pressure | Rain* | Wind** | Luminosity | Snow |
|---|---|---|---|---|---|---|---|
| 1778135849 | 15° C | 80% | 1058.5 hPa | 0 mm | - | - | - |
| 1778135608 | 15° C | 79% | 1090.9 hPa | 0 mm | - | - | - |
| 1778135549 | 15° C | 79% | 1001 hPa | 0 mm | - | - | - |
| 1778135249 | 15.56° C | 78% | 1026 hPa | 0 mm | - | - | - |
| 1778134949 | 15.56° C | 76% | 1022.8 hPa | 0 mm | - | - | - |
| 1778134649 | 15.56° C | 76% | 1097.2 hPa | 0 mm | - | - | - |
| 1778134349 | 16.11° C | 76% | 971.7 hPa | 0 mm | - | - | - |
| 1778134058 | 16.11° C | 75% | 961.4 hPa | 0 mm | - | - | - |
| 1778134049 | 16.11° C | 75% | 961.4 hPa | 0 mm | - | - | - |
| 1778133749 | 16.11° C | 74% | 974.8 hPa | 0 mm | - | - | - |
| 1778133628 | 16.67° C | 74% | 1013.5 hPa | 0 mm | - | - | - |
| 1778133449 | 16.67° C | 73% | 1067.9 hPa | 0 mm | - | - | - |
| 1778133149 | 17.22° C | 72% | 1002.7 hPa | 0 mm | - | - | - |
| 1778132849 | 17.78° C | 71% | 1052.2 hPa | 0 mm | - | - | - |
| 1778132549 | 17.78° C | 72% | 1046 hPa | 0 mm | - | - | - |
| 1778132249 | 17.78° C | 72% | 1015.4 hPa | 0 mm | - | - | - |
| 1778131949 | 17.78° C | 71% | 965.4 hPa | 0 mm | - | - | - |
| 1778131648 | 17.78° C | 71% | 981 hPa | 0 mm | - | - | - |
| 1778131349 | 17.78° C | 70% | 1039.7 hPa | 0 mm | - | - | - |
| 1778131049 | 17.78° C | 69% | 1055.4 hPa | 0 mm | - | - | - |
| 1778130749 | 18.89° C | 68% | 962.3 hPa | 0 mm | - | - | - |
| 1778130449 | 18.89° C | 68% | 1010.4 hPa | 0 mm | - | - | - |
| 1778130149 | 19.44° C | 68% | 1052.2 hPa | 0 mm | - | - | - |
| 1778129849 | 20° C | 68% | 1046 hPa | 0 mm | - | - | - |
| 1778129668 | 20° C | 69% | 1022.9 hPa | 0 mm | - | - | - |
* Rain latest hour (hover to see other rain measurements)
** Current wind speed in m/s (hover to see current wind gust speed)